| time (UTC) | temp F | wind direction | speed MPH | gust MPH | rain 1hr in | rain 24hr in | rain mn in | humidity % | barometer mb |
| 20260508084923 | 38 | 169 | 1.0 | 2.0 | 0.00 | 0.00 | 0.00 | 70 | 1014.2 |
| 20260508084425 | 38 | 169 | 1.0 | 2.0 | 0.00 | 0.00 | 0.00 | 70 | 1014.0 |
| 20260508083920 | 38 | 169 | 1.0 | 2.0 | 0.00 | 0.00 | 0.00 | 70 | 1013.9 |
| 20260508083420 | 38 | 169 | 0.0 | 2.0 | 0.00 | 0.00 | 0.00 | 70 | 1013.9 |
| 20260508083152 | 38 | 169 | 1.0 | 2.0 | 0.00 | 0.00 | 0.00 | 70 | 1014.0 |
| 20260508082420 | 38 | 169 | 2.0 | 4.0 | 0.00 | 0.00 | 0.00 | 70 | 1014.0 |
| 20260508081919 | 38 | 169 | 1.0 | 4.0 | 0.00 | 0.00 | 0.00 | 70 | 1013.8 |
| 20260508081421 | 38 | 169 | 1.0 | 4.0 | 0.00 | 0.00 | 0.00 | 70 | 1013.9 |
| 20260508080915 | 38 | 169 | 2.0 | 5.0 | 0.00 | 0.00 | 0.00 | 70 | 1013.9 |
| 20260508080416 | 38 | 169 | 3.0 | 5.0 | 0.00 | 0.00 | 0.00 | 70 | 1013.9 |
| 20260508075915 | 38 | 169 | 3.0 | 5.0 | 0.00 | 0.00 | 0.00 | 70 | 1014.0 |
| 20260508075415 | 38 | 0 | 2.0 | 4.0 | 0.00 | 0.00 | 0.00 | 70 | 1014.0 |
| 20260508074916 | 38 | 171 | 2.0 | 4.0 | 0.00 | 0.00 | 0.00 | 70 | 1014.1 |
| 20260508074416 | 38 | 171 | 1.0 | 3.0 | 0.00 | 0.00 | 0.00 | 70 | 1014.2 |
| 20260508073911 | 38 | 171 | 1.0 | 2.0 | 0.00 | 0.00 | 0.00 | 70 | 1014.1 |
| 20260508073410 | 38 | 171 | 1.0 | 2.0 | 0.00 | 0.00 | 0.00 | 70 | 1014.1 |
| 20260508073155 | 38 | 171 | 1.0 | 2.0 | 0.00 | 0.00 | 0.00 | 71 | 1014.1 |
| 20260508072410 | 38 | 171 | 1.0 | 2.0 | 0.00 | 0.00 | 0.00 | 71 | 1014.0 |
| 20260508071910 | 38 | 171 | 1.0 | 2.0 | 0.00 | 0.00 | 0.00 | 71 | 1014.6 |
| 20260508071413 | 38 | 171 | 1.0 | 4.0 | 0.00 | 0.00 | 0.00 | 71 | 1014.1 |
| 20260508070904 | 38 | 171 | 1.0 | 4.0 | 0.00 | 0.00 | 0.00 | 71 | 1014.1 |
| 20260508070403 | 38 | 171 | 1.0 | 4.0 | 0.00 | 0.00 | 0.00 | 71 | 1014.1 |
| 20260508065903 | 38 | 171 | 1.0 | 4.0 | 0.00 | 0.00 | 0.00 | 71 | 1014.0 |
| 20260508065403 | 38 | 0 | 1.0 | 3.0 | 0.00 | 0.00 | 0.00 | 71 | 1014.1 |
| 20260508064902 | 38 | 0 | 1.0 | 3.0 | 0.00 | 0.00 | 0.00 | 71 | 1014.1 |
| 20260508064402 | 38 | 313 | 0.0 | 1.0 | 0.00 | 0.00 | 0.00 | 71 | 1014.2 |
| 20260508063857 | 38 | 313 | 0.0 | 2.0 | 0.00 | 0.00 | 0.00 | 71 | 1014.2 |
| 20260508063358 | 39 | 313 | 0.0 | 2.0 | 0.00 | 0.00 | 0.00 | 71 | 1014.2 |
| 20260508063131 | 39 | 313 | 0.0 | 2.0 | 0.00 | 0.00 | 0.00 | 71 | 1014.2 |
| 20260508062628 | 39 | 313 | 1.0 | 2.0 | 0.00 | 0.00 | 0.00 | 71 | 1014.3 |
| 20260508061900 | 39 | 0 | 0.0 | 2.0 | 0.00 | 0.00 | 0.00 | 71 | 1014.3 |
| 20260508061855 | 39 | 313 | 1.0 | 2.0 | 0.00 | 0.00 | 0.00 | 71 | 1014.3 |
| 20260508060852 | 39 | 314 | 0.0 | 0.0 | 0.00 | 0.00 | 0.00 | 71 | 1014.1 |
| 20260508060352 | 39 | 314 | 0.0 | 1.0 | 0.00 | 0.00 | 0.00 | 71 | 1014.2 |
| 20260508055854 | 40 | 0 | 1.0 | 2.0 | 0.00 | 0.00 | 0.00 | 71 | 1014.5 |
| 20260508055849 | 40 | 314 | 1.0 | 2.0 | 0.00 | 0.00 | 0.00 | 71 | 1014.3 |
| 20260508055121 | 40 | 0 | 0.0 | 2.0 | 0.00 | 0.00 | 0.00 | 70 | 1014.5 |
| 20260508054350 | 40 | 0 | 0.0 | 0.0 | 0.00 | 0.00 | 0.00 | 70 | 1014.5 |
| 20260508054121 | 40 | 314 | 0.0 | 0.0 | 0.00 | 0.00 | 0.00 | 70 | 1014.6 |
| 20260508053346 | 40 | 315 | 0.0 | 0.0 | 0.00 | 0.00 | 0.00 | 70 | 1014.6 |
| 20260508052844 | 40 | 315 | 0.0 | 0.0 | 0.00 | 0.00 | 0.00 | 70 | 1014.6 |
| 20260508052345 | 41 | 315 | 0.0 | 0.0 | 0.00 | 0.00 | 0.00 | 69 | 1014.8 |
| 20260508051844 | 41 | 316 | 0.0 | 0.0 | 0.00 | 0.00 | 0.00 | 68 | 1014.6 |
| 20260508051342 | 41 | 315 | 0.0 | 0.0 | 0.00 | 0.00 | 0.00 | 68 | 1014.6 |
| 20260508050841 | 41 | 314 | 0.0 | 0.0 | 0.00 | 0.00 | 0.00 | 67 | 1014.6 |
| 20260508050335 | 42 | 314 | 0.0 | 0.0 | 0.00 | 0.00 | 0.00 | 67 | 1014.6 |
| 20260508045833 | 42 | 315 | 0.0 | 0.0 | 0.00 | 0.00 | 0.00 | 67 | 1014.6 |
| 20260508045332 | 42 | 315 | 0.0 | 0.0 | 0.00 | 0.00 | 0.00 | 67 | 1014.5 |
| 20260508044831 | 42 | 315 | 0.0 | 0.0 | 0.00 | 0.00 | 0.00 | 67 | 1014.5 |
| 20260508044330 | 43 | 0 | 0.0 | 0.0 | 0.00 | 0.00 | 0.00 | 66 | 1014.6 |
| 20260508043824 | 43 | 0 | 0.0 | 0.0 | 0.00 | 0.00 | 0.00 | 66 | 1014.5 |
| 20260508043322 | 43 | 0 | 0.0 | 0.0 | 0.00 | 0.00 | 0.00 | 66 | 1014.5 |
| 20260508042820 | 43 | 0 | 0.0 | 0.0 | 0.00 | 0.00 | 0.00 | 66 | 1014.4 |
| 20260508042318 | 44 | 0 | 0.0 | 0.0 | 0.00 | 0.00 | 0.00 | 65 | 1014.4 |
| 20260508041817 | 44 | 0 | 0.0 | 0.0 | 0.00 | 0.00 | 0.00 | 64 | 1014.2 |
| 20260508041316 | 44 | 0 | 0.0 | 0.0 | 0.00 | 0.00 | 0.00 | 63 | 1014.3 |
| 20260508040814 | 45 | 0 | 0.0 | 0.0 | 0.00 | 0.00 | 0.00 | 63 | 1014.2 |
| 20260508040314 | 45 | 0 | 0.0 | 0.0 | 0.00 | 0.00 | 0.00 | 62 | 1014.1 |
| 20260508035814 | 45 | 0 | 0.0 | 0.0 | 0.00 | 0.00 | 0.00 | 62 | 1014.1 |
| 20260508035313 | 45 | 0 | 0.0 | 0.0 | 0.00 | 0.00 | 0.00 | 61 | 1014.3 |
| 20260508034811 | 46 | 0 | 0.0 | 0.0 | 0.00 | 0.00 | 0.00 | 61 | 1014.2 |
| 20260508034304 | 46 | 0 | 0.0 | 0.0 | 0.00 | 0.00 | 0.00 | 59 | 1014.2 |
| 20260508033802 | 47 | 0 | 0.0 | 0.0 | 0.00 | 0.00 | 0.00 | 58 | 1014.2 |
| 20260508033301 | 47 | 0 | 0.0 | 0.0 | 0.00 | 0.00 | 0.00 | 58 | 1014.2 |
| 20260508032758 | 47 | 0 | 0.0 | 0.0 | 0.00 | 0.00 | 0.00 | 57 | 1014.1 |
| 20260508032257 | 48 | 0 | 0.0 | 0.0 | 0.00 | 0.00 | 0.00 | 57 | 1014.0 |
| 20260508031750 | 48 | 0 | 0.0 | 0.0 | 0.00 | 0.00 | 0.00 | 56 | 1014.0 |
| 20260508031248 | 48 | 0 | 0.0 | 0.0 | 0.00 | 0.00 | 0.00 | 55 | 1014.0 |
| 20260508031018 | 49 | 0 | 0.0 | 0.0 | 0.00 | 0.00 | 0.00 | 56 | 1014.0 |
| 20260508030245 | 49 | 0 | 0.0 | 0.0 | 0.00 | 0.00 | 0.00 | 55 | 1014.0 |
| 20260508025744 | 49 | 0 | 0.0 | 0.0 | 0.00 | 0.00 | 0.00 | 54 | 1013.9 |
| 20260508025240 | 50 | 0 | 0.0 | 1.0 | 0.00 | 0.00 | 0.00 | 53 | 1014.0 |
| 20260508025236 | 49 | 0 | 0.0 | 0.0 | 0.00 | 0.00 | 0.00 | 53 | 1013.9 |
| 20260508024238 | 50 | 0 | 0.0 | 0.0 | 0.00 | 0.00 | 0.00 | 52 | 1013.8 |
| 20260508024233 | 50 | 0 | 0.0 | 1.0 | 0.00 | 0.00 | 0.00 | 53 | 1013.9 |
| 20260508023231 | 51 | 314 | 0.0 | 0.0 | 0.00 | 0.00 | 0.00 | 52 | 1013.7 |
| 20260508022726 | 51 | 0 | 0.0 | 1.0 | 0.00 | 0.00 | 0.00 | 51 | 1013.8 |
| 20260508022224 | 51 | 315 | 0.0 | 2.0 | 0.00 | 0.00 | 0.00 | 51 | 1013.6 |
| 20260508021726 | 52 | 0 | 1.0 | 2.0 | 0.00 | 0.00 | 0.00 | 50 | 1013.5 |
| 20260508021458 | 52 | 0 | 1.0 | 3.0 | 0.00 | 0.00 | 0.00 | 50 | 1013.4 |
| 20260508021346 | 52 | 324 | 2.0 | 6.0 | 0.00 | 0.00 | 0.00 | 49 | 1013.2 |
| 20260508020724 | 52 | 316 | 1.0 | 4.0 | 0.00 | 0.00 | 0.00 | 49 | 1013.2 |
| 20260508015717 | 52 | 0 | 1.0 | 6.0 | 0.00 | 0.00 | 0.00 | 48 | 1013.1 |
| 20260508015218 | 53 | 0 | 1.0 | 6.0 | 0.00 | 0.00 | 0.00 | 47 | 1013.2 |
| 20260508014717 | 53 | 302 | 2.0 | 4.0 | 0.00 | 0.00 | 0.00 | 47 | 1013.1 |
| 20260508014217 | 53 | 0 | 3.0 | 8.0 | 0.00 | 0.00 | 0.00 | 47 | 1013.1 |
| 20260508013718 | 53 | 0 | 4.0 | 10.0 | 0.00 | 0.00 | 0.00 | 46 | 1013.1 |
| 20260508013215 | 53 | 297 | 3.0 | 10.0 | 0.00 | 0.00 | 0.00 | 45 | 1013.0 |
| 20260508012714 | 54 | 0 | 2.0 | 6.0 | 0.00 | 0.00 | 0.00 | 45 | 1013.0 |
| 20260508012446 | 54 | 0 | 2.0 | 6.0 | 0.00 | 0.00 | 0.00 | 45 | 1012.8 |
| 20260508011714 | 54 | 0 | 2.0 | 6.0 | 0.00 | 0.00 | 0.00 | 44 | 1012.7 |
| 20260508011213 | 54 | 0 | 2.0 | 6.0 | 0.00 | 0.00 | 0.00 | 43 | 1012.6 |
| 20260508010714 | 54 | 340 | 2.0 | 9.0 | 0.00 | 0.00 | 0.00 | 44 | 1012.6 |
| 20260508010215 | 55 | 19 | 3.0 | 9.0 | 0.00 | 0.00 | 0.00 | 43 | 1012.6 |
| 20260508005714 | 55 | 0 | 3.0 | 9.0 | 0.00 | 0.00 | 0.00 | 43 | 1012.6 |
| 20260508005213 | 55 | 205 | 1.0 | 5.0 | 0.00 | 0.00 | 0.00 | 44 | 1012.5 |
| 20260508004944 | 55 | 0 | 1.0 | 5.0 | 0.00 | 0.00 | 0.00 | 44 | 1012.4 |
| 20260508004214 | 55 | 305 | 1.0 | 5.0 | 0.00 | 0.00 | 0.00 | 43 | 1012.4 |
| 20260508003712 | 55 | 259 | 1.0 | 9.0 | 0.00 | 0.00 | 0.00 | 44 | 1012.3 |
| 20260508003210 | 56 | 290 | 2.0 | 9.0 | 0.00 | 0.00 | 0.00 | 43 | 1012.2 |
| 20260508002710 | 56 | 0 | 2.0 | 6.0 | 0.00 | 0.00 | 0.00 | 43 | 1012.3 |
| 20260508002211 | 56 | 0 | 2.0 | 6.0 | 0.00 | 0.00 | 0.00 | 43 | 1012.2 |
| 20260508001707 | 56 | 232 | 2.0 | 6.0 | 0.00 | 0.00 | 0.00 | 43 | 1012.0 |
| 20260508001208 | 56 | 0 | 2.0 | 4.0 | 0.00 | 0.00 | 0.00 | 44 | 1012.0 |
| 20260508000709 | 57 | 0 | 2.0 | 4.0 | 0.00 | 0.00 | 0.00 | 43 | 1012.0 |
| 20260508000205 | 57 | 67 | 2.0 | 5.0 | 0.00 | 0.00 | 0.00 | 42 | 1011.9 |
| 20260507235704 | 57 | 0 | 2.0 | 5.0 | 0.00 | 0.00 | 0.00 | 42 | 1012.0 |
| 20260507235204 | 57 | 0 | 2.0 | 5.0 | 0.00 | 0.00 | 0.00 | 42 | 1011.9 |
| 20260507234933 | 57 | 0 | 2.0 | 5.0 | 0.00 | 0.00 | 0.00 | 41 | 1011.8 |
| 20260507234201 | 58 | 0 | 2.0 | 8.0 | 0.00 | 0.00 | 0.00 | 42 | 1011.8 |
| 20260507233657 | 58 | 342 | 3.0 | 8.0 | 0.00 | 0.00 | 0.00 | 40 | 1011.9 |
| 20260507233428 | 58 | 0 | 3.0 | 8.0 | 0.00 | 0.00 | 0.00 | 41 | 1011.7 |
| 20260507232656 | 58 | 0 | 3.0 | 8.0 | 0.00 | 0.00 | 0.00 | 41 | 1011.7 |
| 20260507232157 | 58 | 0 | 3.0 | 9.0 | 0.00 | 0.00 | 0.00 | 39 | 1011.7 |
| 20260507231656 | 58 | 0 | 3.0 | 9.0 | 0.00 | 0.00 | 0.00 | 39 | 1011.6 |
| 20260507231153 | 58 | 9 | 5.0 | 12.0 | 0.00 | 0.00 | 0.00 | 39 | 1011.6 |
| 20260507230654 | 59 | 0 | 6.0 | 12.0 | 0.00 | 0.00 | 0.00 | 39 | 1011.7 |
| 20260507230156 | 59 | 0 | 4.0 | 13.0 | 0.00 | 0.00 | 0.00 | 38 | 1011.6 |
| 20260507225654 | 59 | 0 | 4.0 | 13.0 | 0.00 | 0.00 | 0.00 | 38 | 1011.6 |
| 20260507225423 | 59 | 94 | 4.0 | 13.0 | 0.00 | 0.00 | 0.00 | 38 | 1011.4 |
| 20260507224923 | 59 | 235 | 4.0 | 10.0 | 0.00 | 0.00 | 0.00 | 38 | 1011.3 |
| 20260507224153 | 59 | 0 | 3.0 | 10.0 | 0.00 | 0.00 | 0.00 | 38 | 1011.4 |
| 20260507223651 | 60 | 27 | 3.0 | 9.0 | 0.00 | 0.00 | 0.00 | 38 | 1011.3 |
| 20260507223152 | 60 | 28 | 4.0 | 10.0 | 0.00 | 0.00 | 0.00 | 38 | 1011.3 |
| 20260507222650 | 60 | 25 | 3.0 | 10.0 | 0.00 | 0.00 | 0.00 | 38 | 1011.3 |
| 20260507222150 | 60 | 0 | 3.0 | 9.0 | 0.00 | 0.00 | 0.00 | 39 | 1011.2 |
| 20260507221650 | 60 | 333 | 4.0 | 11.0 | 0.00 | 0.00 | 0.00 | 37 | 1011.2 |
| 20260507221419 | 61 | 0 | 6.0 | 14.0 | 0.00 | 0.00 | 0.00 | 36 | 1011.3 |
| 20260507220649 | 61 | 36 | 6.0 | 14.0 | 0.00 | 0.00 | 0.00 | 36 | 1011.2 |
| 20260507220147 | 61 | 0 | 4.0 | 12.0 | 0.00 | 0.00 | 0.00 | 36 | 1011.2 |
| 20260507215644 | 61 | 0 | 4.0 | 12.0 | 0.00 | 0.00 | 0.00 | 38 | 1011.1 |
| 20260507215144 | 61 | 0 | 5.0 | 13.0 | 0.00 | 0.00 | 0.00 | 39 | 1011.0 |
| 20260507214644 | 61 | 0 | 6.0 | 17.0 | 0.00 | 0.00 | 0.00 | 36 | 1011.0 |
| 20260507214144 | 61 | 0 | 6.0 | 17.0 | 0.00 | 0.00 | 0.00 | 36 | 1011.0 |
| 20260507213643 | 61 | 0 | 4.0 | 13.0 | 0.00 | 0.00 | 0.00 | 38 | 1011.1 |
| 20260507213143 | 61 | 0 | 5.0 | 13.0 | 0.00 | 0.00 | 0.00 | 37 | 1010.9 |
| 20260507212642 | 61 | 334 | 5.0 | 14.0 | 0.00 | 0.00 | 0.00 | 37 | 1010.9 |
| 20260507212142 | 62 | 0 | 5.0 | 14.0 | 0.00 | 0.00 | 0.00 | 38 | 1011.0 |
| 20260507211913 | 61 | 0 | 5.0 | 12.0 | 0.00 | 0.00 | 0.00 | 40 | 1010.9 |
| 20260507211143 | 61 | 342 | 6.0 | 15.0 | 0.00 | 0.00 | 0.00 | 37 | 1010.9 |
| 20260507210641 | 60 | 0 | 7.0 | 15.0 | 0.00 | 0.00 | 0.00 | 39 | 1010.9 |
| 20260507210140 | 60 | 0 | 6.0 | 14.0 | 0.00 | 0.00 | 0.00 | 39 | 1010.7 |
| 20260507205639 | 60 | 0 | 6.0 | 14.0 | 0.00 | 0.00 | 0.00 | 40 | 1010.7 |
| 20260507205136 | 60 | 0 | 7.0 | 14.0 | 0.00 | 0.00 | 0.00 | 40 | 1010.6 |
| 20260507204635 | 60 | 81 | 7.0 | 15.0 | 0.00 | 0.00 | 0.00 | 39 | 1010.7 |
| 20260507204136 | 60 | 0 | 8.0 | 15.0 | 0.00 | 0.00 | 0.00 | 39 | 1010.6 |
| 20260507203906 | 60 | 322 | 8.0 | 15.0 | 0.00 | 0.00 | 0.00 | 38 | 1010.7 |
| 20260507203405 | 60 | 0 | 6.0 | 14.0 | 0.00 | 0.00 | 0.00 | 40 | 1010.7 |
| 20260507202636 | 61 | 0 | 5.0 | 14.0 | 0.00 | 0.00 | 0.00 | 39 | 1010.8 |
| 20260507202134 | 62 | 0 | 6.0 | 14.0 | 0.00 | 0.00 | 0.00 | 38 | 1010.9 |
| 20260507201633 | 62 | 0 | 7.0 | 15.0 | 0.00 | 0.00 | 0.00 | 40 | 1011.0 |
| 20260507201133 | 62 | 0 | 6.0 | 15.0 | 0.00 | 0.00 | 0.00 | 39 | 1010.7 |
| 20260507200630 | 62 | 0 | 5.0 | 14.0 | 0.00 | 0.00 | 0.00 | 39 | 1010.9 |
| 20260507200131 | 61 | 0 | 5.0 | 14.0 | 0.00 | 0.00 | 0.00 | 39 | 1010.9 |
| 20260507195631 | 62 | 0 | 5.0 | 14.0 | 0.00 | 0.00 | 0.00 | 39 | 1011.1 |
| 20260507195130 | 62 | 342 | 5.0 | 11.0 | 0.00 | 0.00 | 0.00 | 41 | 1011.2 |
| 20260507194628 | 62 | 17 | 5.0 | 13.0 | 0.00 | 0.00 | 0.00 | 42 | 1011.4 |
| 20260507194400 | 62 | 0 | 5.0 | 13.0 | 0.00 | 0.00 | 0.00 | 40 | 1011.6 |
| 20260507193628 | 62 | 0 | 5.0 | 14.0 | 0.00 | 0.00 | 0.00 | 42 | 1011.6 |
| 20260507193401 | 61 | 190 | 5.0 | 14.0 | 0.00 | 0.00 | 0.00 | 44 | 1011.6 |
| 20260507192630 | 61 | 0 | 5.0 | 12.0 | 0.00 | 0.00 | 0.00 | 42 | 1011.6 |
| 20260507192126 | 60 | 280 | 6.0 | 16.0 | 0.00 | 0.00 | 0.00 | 41 | 1011.3 |
| 20260507191856 | 61 | 0 | 6.0 | 16.0 | 0.00 | 0.00 | 0.00 | 40 | 1011.4 |
| 20260507191356 | 61 | 9 | 4.0 | 16.0 | 0.00 | 0.00 | 0.00 | 41 | 1011.4 |
| 20260507190626 | 61 | 0 | 3.0 | 9.0 | 0.00 | 0.00 | 0.00 | 45 | 1011.6 |
| 20260507190123 | 60 | 0 | 4.0 | 13.0 | 0.00 | 0.00 | 0.00 | 42 | 1011.4 |
| 20260507185624 | 60 | 0 | 5.0 | 13.0 | 0.00 | 0.00 | 0.00 | 42 | 1011.6 |
| 20260507185401 | 61 | 0 | 4.0 | 11.0 | 0.00 | 0.00 | 0.00 | 42 | 1011.6 |
| 20260507185124 | 60 | 0 | 5.0 | 11.0 | 0.00 | 0.00 | 0.00 | 42 | 1011.4 |
| 20260507183620 | 61 | 0 | 5.0 | 15.0 | 0.00 | 0.00 | 0.00 | 40 | 1011.9 |
| 20260507183120 | 62 | 0 | 6.0 | 15.0 | 0.00 | 0.00 | 0.00 | 40 | 1011.9 |
| 20260507182620 | 61 | 0 | 5.0 | 15.0 | 0.00 | 0.00 | 0.00 | 41 | 1011.8 |
| 20260507182119 | 61 | 0 | 5.0 | 15.0 | 0.00 | 0.00 | 0.00 | 43 | 1011.7 |
| 20260507181619 | 61 | 0 | 3.0 | 10.0 | 0.00 | 0.00 | 0.00 | 41 | 1011.8 |
| 20260507181351 | 61 | 348 | 5.0 | 13.0 | 0.00 | 0.00 | 0.00 | 40 | 1011.8 |
| 20260507181243 | 62 | 196 | 6.0 | 13.0 | 0.00 | 0.00 | 0.00 | 40 | 1011.9 |
| 20260507180120 | 62 | 251 | 4.0 | 10.0 | 0.00 | 0.00 | 0.00 | 39 | 1011.9 |
| 20260507175619 | 61 | 0 | 3.0 | 10.0 | 0.00 | 0.00 | 0.00 | 43 | 1011.8 |
| 20260507175119 | 61 | 0 | 3.0 | 9.0 | 0.00 | 0.00 | 0.00 | 41 | 1011.7 |
| 20260507174619 | 61 | 210 | 3.0 | 8.0 | 0.00 | 0.00 | 0.00 | 41 | 1011.9 |
| 20260507174117 | 61 | 164 | 4.0 | 10.0 | 0.00 | 0.00 | 0.00 | 40 | 1012.0 |
| 20260507173618 | 62 | 0 | 4.0 | 10.0 | 0.00 | 0.00 | 0.00 | 40 | 1012.1 |
| 20260507173350 | 61 | 0 | 4.0 | 11.0 | 0.00 | 0.00 | 0.00 | 43 | 1012.3 |
| 20260507172618 | 61 | 0 | 4.0 | 11.0 | 0.00 | 0.00 | 0.00 | 41 | 1012.3 |
| 20260507172118 | 60 | 0 | 4.0 | 10.0 | 0.00 | 0.00 | 0.00 | 46 | 1012.3 |
| 20260507171617 | 60 | 0 | 3.0 | 10.0 | 0.00 | 0.00 | 0.00 | 44 | 1012.2 |
| 20260507171117 | 58 | 210 | 4.0 | 8.0 | 0.00 | 0.00 | 0.00 | 49 | 1012.3 |
| 20260507170616 | 58 | 0 | 4.0 | 10.0 | 0.00 | 0.00 | 0.00 | 43 | 1012.1 |
| 20260507170117 | 58 | 277 | 3.0 | 10.0 | 0.00 | 0.00 | 0.00 | 43 | 1012.2 |
| 20260507165617 | 57 | 60 | 3.0 | 9.0 | 0.00 | 0.00 | 0.00 | 48 | 1012.4 |
| 20260507165117 | 57 | 0 | 3.0 | 9.0 | 0.00 | 0.00 | 0.00 | 44 | 1012.4 |
| 20260507164614 | 57 | 0 | 3.0 | 8.0 | 0.00 | 0.00 | 0.00 | 44 | 1012.5 |
| 20260507164115 | 57 | 336 | 4.0 | 11.0 | 0.00 | 0.00 | 0.00 | 44 | 1012.7 |
| 20260507163614 | 58 | 0 | 4.0 | 11.0 | 0.00 | 0.00 | 0.00 | 43 | 1012.7 |
| 20260507163115 | 58 | 0 | 4.0 | 10.0 | 0.00 | 0.00 | 0.00 | 43 | 1012.8 |
| 20260507162615 | 59 | 0 | 4.0 | 10.0 | 0.00 | 0.00 | 0.00 | 44 | 1012.8 |
| 20260507162114 | 59 | 0 | 4.0 | 9.0 | 0.00 | 0.00 | 0.00 | 47 | 1012.7 |
| 20260507161613 | 58 | 0 | 5.0 | 11.0 | 0.00 | 0.00 | 0.00 | 44 | 1012.9 |
| 20260507161113 | 58 | 280 | 4.0 | 11.0 | 0.00 | 0.00 | 0.00 | 46 | 1012.9 |
| 20260507160614 | 58 | 0 | 3.0 | 8.0 | 0.00 | 0.00 | 0.00 | 47 | 1013.0 |
| 20260507160113 | 58 | 0 | 3.0 | 9.0 | 0.00 | 0.00 | 0.00 | 46 | 1013.0 |
| 20260507155611 | 58 | 0 | 4.0 | 9.0 | 0.00 | 0.00 | 0.00 | 46 | 1013.0 |
| 20260507155115 | 58 | 350 | 5.0 | 10.0 | 0.00 | 0.00 | 0.00 | 45 | 1013.1 |
| 20260507154613 | 58 | 0 | 5.0 | 12.0 | 0.00 | 0.00 | 0.00 | 46 | 1013.1 |
| 20260507154113 | 58 | 0 | 5.0 | 12.0 | 0.00 | 0.00 | 0.00 | 45 | 1013.1 |
| 20260507153610 | 57 | 0 | 5.0 | 11.0 | 0.00 | 0.00 | 0.00 | 46 | 1013.2 |
| 20260507153109 | 57 | 0 | 4.0 | 11.0 | 0.00 | 0.00 | 0.00 | 46 | 1013.1 |
| 20260507152609 | 57 | 0 | 4.0 | 10.0 | 0.00 | 0.00 | 0.00 | 46 | 1013.1 |
| 20260507152108 | 57 | 0 | 3.0 | 10.0 | 0.00 | 0.00 | 0.00 | 46 | 1013.2 |
| 20260507151608 | 56 | 327 | 4.0 | 9.0 | 0.00 | 0.00 | 0.00 | 44 | 1013.2 |
| 20260507151108 | 56 | 260 | 5.0 | 10.0 | 0.00 | 0.00 | 0.00 | 45 | 1013.2 |
| 20260507150606 | 57 | 17 | 4.0 | 10.0 | 0.00 | 0.02 | 0.00 | 44 | 1013.3 |
| 20260507150107 | 57 | 207 | 3.0 | 9.0 | 0.00 | 0.03 | 0.00 | 52 | 1013.5 |
| 20260507145605 | 57 | 0 | 3.0 | 9.0 | 0.00 | 0.03 | 0.00 | 47 | 1013.5 |
| 20260507145105 | 57 | 189 | 4.0 | 9.0 | 0.00 | 0.03 | 0.00 | 48 | 1013.6 |
| 20260507144605 | 57 | 0 | 3.0 | 9.0 | 0.00 | 0.03 | 0.00 | 49 | 1013.6 |
| 20260507144106 | 57 | 0 | 3.0 | 9.0 | 0.00 | 0.03 | 0.00 | 49 | 1013.6 |
| 20260507143837 | 57 | 187 | 3.0 | 9.0 | 0.00 | 0.03 | 0.00 | 51 | 1013.8 |
| 20260507143105 | 56 | 232 | 3.0 | 8.0 | 0.00 | 0.03 | 0.00 | 52 | 1013.9 |
| 20260507142843 | 56 | 19 | 2.0 | 8.0 | 0.00 | 0.03 | 0.00 | 52 | 1013.9 |
| 20260507142605 | 56 | 0 | 2.0 | 8.0 | 0.00 | 0.03 | 0.00 | 48 | 1013.8 |
| 20260507141607 | 55 | 275 | 4.0 | 10.0 | 0.00 | 0.03 | 0.00 | 49 | 1014.0 |
| 20260507141104 | 55 | 0 | 5.0 | 10.0 | 0.00 | 0.03 | 0.00 | 50 | 1014.0 |
| 20260507140603 | 55 | 338 | 4.0 | 10.0 | 0.00 | 0.03 | 0.00 | 48 | 1014.1 |
| 20260507135602 | 55 | 0 | 2.0 | 9.0 | 0.00 | 0.03 | 0.00 | 53 | 1014.0 |
| 20260507135101 | 55 | 10 | 2.0 | 6.0 | 0.00 | 0.03 | 0.00 | 55 | 1014.2 |
| 20260507134601 | 55 | 0 | 3.0 | 7.0 | 0.00 | 0.03 | 0.00 | 53 | 1014.3 |
| 20260507134058 | 55 | 0 | 3.0 | 8.0 | 0.00 | 0.03 | 0.00 | 56 | 1014.4 |
| 20260507133557 | 55 | 0 | 3.0 | 8.0 | 0.00 | 0.03 | 0.00 | 58 | 1014.4 |
| 20260507133328 | 54 | 0 | 3.0 | 6.0 | 0.00 | 0.03 | 0.00 | 56 | 1014.5 |
| 20260507132557 | 54 | 200 | 4.0 | 8.0 | 0.00 | 0.03 | 0.00 | 58 | 1014.5 |
| 20260507132326 | 54 | 0 | 4.0 | 8.0 | 0.00 | 0.03 | 0.00 | 58 | 1014.4 |
| 20260507131556 | 53 | 0 | 3.0 | 8.0 | 0.00 | 0.03 | 0.00 | 58 | 1014.5 |
| 20260507131056 | 53 | 0 | 2.0 | 6.0 | 0.00 | 0.03 | 0.00 | 58 | 1014.3 |
| 20260507130554 | 52 | 248 | 3.0 | 6.0 | 0.00 | 0.03 | 0.00 | 57 | 1014.3 |
| 20260507130325 | 52 | 223 | 3.0 | 5.0 | 0.00 | 0.03 | 0.00 | 60 | 1014.2 |
| 20260507125822 | 51 | 0 | 2.0 | 5.0 | 0.00 | 0.03 | 0.00 | 63 | 1014.1 |
| 20260507125051 | 51 | 0 | 2.0 | 5.0 | 0.00 | 0.03 | 0.00 | 64 | 1014.1 |
| 20260507124551 | 51 | 163 | 2.0 | 4.0 | 0.00 | 0.03 | 0.00 | 64 | 1014.1 |
| 20260507124050 | 50 | 186 | 2.0 | 5.0 | 0.00 | 0.03 | 0.00 | 64 | 1014.1 |
| 20260507123550 | 49 | 151 | 2.0 | 5.0 | 0.00 | 0.03 | 0.00 | 65 | 1014.1 |
| 20260507123051 | 48 | 0 | 2.0 | 5.0 | 0.00 | 0.04 | 0.00 | 65 | 1014.0 |
| 20260507122550 | 48 | 159 | 2.0 | 4.0 | 0.00 | 0.04 | 0.00 | 66 | 1014.1 |
| 20260507122048 | 47 | 0 | 3.0 | 4.0 | 0.00 | 0.04 | 0.00 | 68 | 1013.9 |
| 20260507121545 | 46 | 141 | 2.0 | 4.0 | 0.00 | 0.04 | 0.00 | 69 | 1014.0 |
| 20260507121320 | 46 | 0 | 2.0 | 4.0 | 0.00 | 0.04 | 0.00 | 70 | 1014.0 |
| 20260507120545 | 45 | 138 | 2.0 | 4.0 | 0.00 | 0.04 | 0.00 | 71 | 1013.8 |
| 20260507120046 | 44 | 89 | 2.0 | 3.0 | 0.00 | 0.04 | 0.00 | 72 | 1013.7 |
| 20260507115544 | 43 | 69 | 2.0 | 3.0 | 0.00 | 0.04 | 0.00 | 72 | 1013.6 |
| 20260507115316 | 42 | 67 | 2.0 | 3.0 | 0.00 | 0.04 | 0.00 | 72 | 1013.7 |
| 20260507114543 | 42 | 67 | 1.0 | 2.0 | 0.00 | 0.04 | 0.00 | 72 | 1013.5 |
| 20260507114042 | 41 | 69 | 0.0 | 2.0 | 0.00 | 0.04 | 0.00 | 71 | 1013.5 |
| 20260507113543 | 41 | 0 | 0.0 | 0.0 | 0.00 | 0.04 | 0.00 | 71 | 1013.4 |
| 20260507113040 | 40 | 0 | 0.0 | 0.0 | 0.00 | 0.04 | 0.00 | 71 | 1013.2 |
| 20260507112541 | 40 | 0 | 0.0 | 0.0 | 0.00 | 0.04 | 0.00 | 71 | 1013.2 |
| 20260507112040 | 40 | 0 | 0.0 | 0.0 | 0.00 | 0.04 | 0.00 | 71 | 1013.1 |
| 20260507111538 | 40 | 0 | 0.0 | 0.0 | 0.00 | 0.04 | 0.00 | 71 | 1013.1 |
| 20260507111037 | 40 | 0 | 0.0 | 0.0 | 0.00 | 0.04 | 0.00 | 71 | 1012.9 |
| 20260507110535 | 40 | 0 | 0.0 | 0.0 | 0.00 | 0.04 | 0.00 | 71 | 1012.8 |
| 20260507110037 | 40 | 0 | 0.0 | 0.0 | 0.00 | 0.05 | 0.00 | 71 | 1012.7 |
| 20260507105807 | 40 | 0 | 0.0 | 0.0 | 0.00 | 0.06 | 0.00 | 71 | 1012.7 |
| 20260507105036 | 40 | 0 | 0.0 | 0.0 | 0.00 | 0.06 | 0.00 | 71 | 1012.7 |
| 20260507104534 | 40 | 0 | 0.0 | 0.0 | 0.00 | 0.06 | 0.00 | 71 | 1012.7 |
| 20260507104034 | 40 | 0 | 0.0 | 0.0 | 0.00 | 0.07 | 0.00 | 71 | 1012.7 |
| 20260507103534 | 41 | 0 | 0.0 | 0.0 | 0.00 | 0.07 | 0.00 | 71 | 1012.6 |
| 20260507103034 | 41 | 0 | 0.0 | 0.0 | 0.00 | 0.08 | 0.00 | 72 | 1012.5 |
| 20260507102533 | 41 | 0 | 0.0 | 0.0 | 0.00 | 0.09 | 0.00 | 71 | 1012.6 |
| 20260507102032 | 41 | 0 | 0.0 | 0.0 | 0.00 | 0.11 | 0.00 | 71 | 1012.5 |
| 20260507101531 | 41 | 0 | 0.0 | 0.0 | 0.00 | 0.11 | 0.00 | 71 | 1012.6 |
| 20260507101302 | 41 | 0 | 0.0 | 0.0 | 0.00 | 0.13 | 0.00 | 71 | 1012.5 |
| 20260507100529 | 42 | 0 | 0.0 | 0.0 | 0.00 | 0.14 | 0.00 | 71 | 1012.5 |
| 20260507100028 | 42 | 0 | 0.0 | 0.0 | 0.00 | 0.16 | 0.00 | 71 | 1012.5 |
| 20260507095526 | 42 | 0 | 0.0 | 0.0 | 0.00 | 0.16 | 0.00 | 71 | 1012.5 |
| 20260507095026 | 42 | 0 | 0.0 | 0.0 | 0.00 | 0.16 | 0.00 | 71 | 1012.5 |
| 20260507094524 | 42 | 0 | 0.0 | 0.0 | 0.00 | 0.17 | 0.00 | 70 | 1012.5 |
| 20260507094024 | 43 | 0 | 0.0 | 0.0 | 0.00 | 0.17 | 0.00 | 70 | 1012.6 |
| 20260507093525 | 43 | 0 | 0.0 | 0.0 | 0.00 | 0.19 | 0.00 | 70 | 1012.6 |
| 20260507093023 | 43 | 0 | 0.0 | 0.0 | 0.00 | 0.20 | 0.00 | 71 | 1012.5 |
| 20260507092520 | 43 | 0 | 0.0 | 0.0 | 0.00 | 0.21 | 0.00 | 70 | 1012.6 |
| 20260507092021 | 44 | 0 | 0.0 | 0.0 | 0.00 | 0.22 | 0.00 | 70 | 1012.6 |
| 20260507091519 | 44 | 0 | 0.0 | 0.0 | 0.00 | 0.23 | 0.00 | 69 | 1012.6 |
| 20260507091018 | 44 | 0 | 0.0 | 0.0 | 0.00 | 0.23 | 0.00 | 69 | 1012.7 |
| 20260507090518 | 44 | 0 | 0.0 | 0.0 | 0.00 | 0.23 | 0.00 | 69 | 1012.6 |
| 20260507090016 | 44 | 0 | 0.0 | 0.0 | 0.00 | 0.24 | 0.00 | 69 | 1012.8 |
| 20260507085514 | 44 | 0 | 0.0 | 0.0 | 0.00 | 0.24 | 0.00 | 69 | 1012.8 |